AFR2M LGAV-LFPG

Flight info

Callsign AFR2M
Flight time N/A
Altitude 34000
Route KOR UL53 OLGAT DCT AIOSA DCT EDUGI/N0452F360 DCT BOA DCT CERVI DCT MOLUS DCT UNKIR DCT GIVRI DCT TINIL
Aircraft A320/M-SDE3FGHIRWY/LB1

Departure

Time 2026-05-05 17:41
Airport Athens Eleftherios Venizelos International Airport (LGAV)

Arrival

Time N/A
Airport Charles de Gaulle International Airport (LFPG)
Time Latitude Longitude Altitude Speed Heading
2026-05-05 17:22 37.93653 23.94883 300 ft 0 kts 306°
2026-05-05 17:29 37.93644 23.94899 301 ft 4 kts 300°
2026-05-05 17:29 37.93633 23.94930 301 ft 4 kts 283°
2026-05-05 17:30 37.93631 23.94963 300 ft 4 kts 259°
2026-05-05 17:30 37.93640 23.94994 300 ft 4 kts 231°
2026-05-05 17:30 37.93651 23.95009 302 ft 0 kts 217°
2026-05-05 17:35 37.93634 23.94992 300 ft 17 kts 218°
2026-05-05 17:35 37.93504 23.94867 301 ft 10 kts 217°
2026-05-05 17:35 37.93483 23.94851 301 ft 6 kts 202°
2026-05-05 17:36 37.93450 23.94850 302 ft 4 kts 164°
2026-05-05 17:36 37.93432 23.94869 301 ft 5 kts 130°
2026-05-05 17:36 37.93398 23.94896 301 ft 5 kts 197°
2026-05-05 17:36 37.93377 23.94874 300 ft 3 kts 218°
2026-05-05 17:37 37.93365 23.94863 300 ft 1 kts 218°
2026-05-05 17:37 37.93363 23.94861 300 ft 0 kts 218°
2026-05-05 17:37 37.93355 23.94853 300 ft 3 kts 217°
2026-05-05 17:37 37.93327 23.94828 300 ft 13 kts 214°
2026-05-05 17:38 37.93193 23.94715 304 ft 32 kts 214°
2026-05-05 17:38 37.92976 23.94507 302 ft 45 kts 218°
2026-05-05 17:38 37.92716 23.94248 303 ft 40 kts 216°
2026-05-05 17:38 37.92564 23.94214 303 ft 22 kts 176°
2026-05-05 17:39 37.92436 23.94174 303 ft 17 kts 159°
2026-05-05 17:39 37.92398 23.94297 307 ft 14 kts 85°
2026-05-05 17:39 37.92423 23.94394 309 ft 15 kts 37°
2026-05-05 17:39 37.92446 23.94410 309 ft 0 kts 25°
2026-05-05 17:40 37.92464 23.94424 309 ft 21 kts 36°
2026-05-05 17:40 37.92795 23.94746 300 ft 96 kts 37°
2026-05-05 17:40 37.93480 23.95395 284 ft 152 kts 37°
2026-05-05 17:40 37.94447 23.96341 360 ft 189 kts 39°
2026-05-05 17:41 37.95464 23.97416 853 ft 193 kts 37°
2026-05-05 17:41 37.96529 23.98438 1581 ft 191 kts 37°
2026-05-05 17:41 37.97605 23.99446 2201 ft 198 kts 36°
2026-05-05 17:41 37.98775 24.00542 2523 ft 219 kts 36°
2026-05-05 17:42 38.00055 24.01748 2806 ft 240 kts 36°
2026-05-05 17:42 38.01413 24.03034 3471 ft 245 kts 35°
2026-05-05 17:42 38.02782 24.04338 4269 ft 247 kts 35°
2026-05-05 17:42 38.04152 24.05646 5096 ft 247 kts 34°
2026-05-05 17:43 38.05525 24.06963 5899 ft 248 kts 34°
2026-05-05 17:43 38.06904 24.08283 6689 ft 250 kts 33°
2026-05-05 17:43 38.08503 24.09235 7158 ft 259 kts
2026-05-05 17:43 38.10296 24.09158 7815 ft 262 kts 343°
2026-05-05 17:44 38.11877 24.08002 8532 ft 269 kts 317°
2026-05-05 17:44 38.12857 24.05958 9232 ft 279 kts 288°
2026-05-05 17:44 38.12987 24.03460 9930 ft 289 kts 270°
2026-05-05 17:44 38.12866 24.00861 10313 ft 305 kts 270°
2026-05-05 17:45 38.12729 23.98069 10462 ft 328 kts 270°
2026-05-05 17:45 38.12583 23.95088 10680 ft 346 kts 270°
2026-05-05 17:45 38.12433 23.92002 11206 ft 353 kts 270°
2026-05-05 17:45 38.12283 23.88873 11851 ft 356 kts 270°
2026-05-05 17:46 38.12135 23.85718 12494 ft 360 kts 270°
2026-05-05 17:46 38.11985 23.82538 13128 ft 363 kts 270°
2026-05-05 17:46 38.11834 23.79317 13743 ft 367 kts 270°
2026-05-05 17:46 38.11680 23.76069 14309 ft 370 kts 270°
2026-05-05 17:47 38.11523 23.72808 14879 ft 371 kts 270°
2026-05-05 17:47 38.11365 23.69530 15441 ft 373 kts 270°
2026-05-05 17:47 38.11205 23.66235 15985 ft 374 kts 270°
2026-05-05 17:47 38.11044 23.62930 16563 ft 376 kts 270°
2026-05-05 17:48 38.10884 23.59614 17156 ft 378 kts 270°
2026-05-05 17:48 38.10726 23.56316 17722 ft 380 kts 270°
2026-05-05 17:48 38.10563 23.52969 18302 ft 381 kts 270°
2026-05-05 17:48 38.10397 23.49601 18785 ft 383 kts 270°
2026-05-05 17:49 38.10228 23.46213 19280 ft 385 kts 270°
2026-05-05 17:49 38.10057 23.42818 19811 ft 386 kts 270°
2026-05-05 17:49 38.09882 23.39418 20334 ft 387 kts 270°
2026-05-05 17:49 38.09705 23.35996 20812 ft 389 kts 270°
2026-05-05 17:50 38.09526 23.32563 21300 ft 390 kts 270°
2026-05-05 17:50 38.09348 23.29125 21768 ft 392 kts 270°
2026-05-05 17:50 38.09169 23.25671 22230 ft 392 kts 270°
2026-05-05 17:50 38.08988 23.22212 22693 ft 393 kts 271°
2026-05-05 17:51 38.08807 23.18736 23123 ft 396 kts 271°
2026-05-05 17:51 38.08626 23.15245 23542 ft 397 kts 271°
2026-05-05 17:51 38.08444 23.11740 23902 ft 399 kts 271°
2026-05-05 17:51 38.08258 23.08218 24087 ft 401 kts 270°
2026-05-05 17:52 38.08071 23.04692 24427 ft 402 kts 270°
2026-05-05 17:52 38.07882 23.01149 24762 ft 403 kts 270°
2026-05-05 17:52 38.07689 22.97590 25090 ft 404 kts 271°
2026-05-05 17:52 38.07493 22.94025 25422 ft 406 kts 271°
2026-05-05 17:53 38.07301 22.90445 25738 ft 407 kts 271°
2026-05-05 17:53 38.07453 22.86898 26036 ft 400 kts 285°
2026-05-05 17:53 38.08362 22.83595 26333 ft 396 kts 301°
2026-05-05 17:53 38.09908 22.80718 26622 ft 395 kts 308°
2026-05-05 17:54 38.11569 22.77939 26895 ft 396 kts 308°
2026-05-05 17:54 38.13243 22.75150 27190 ft 397 kts 308°
2026-05-05 17:54 38.14919 22.72356 27476 ft 398 kts 308°
2026-05-05 17:54 38.16599 22.69549 27760 ft 399 kts 308°
2026-05-05 17:55 38.18282 22.66732 28027 ft 400 kts 308°
2026-05-05 17:55 38.19963 22.63907 28296 ft 401 kts 308°
2026-05-05 17:55 38.21648 22.61071 28552 ft 402 kts 308°
2026-05-05 17:55 38.23339 22.58228 28808 ft 403 kts 308°
2026-05-05 17:56 38.25030 22.55377 29055 ft 405 kts 308°
2026-05-05 17:56 38.26726 22.52512 29282 ft 405 kts 308°
2026-05-05 17:56 38.28420 22.49644 29512 ft 406 kts 308°
2026-05-05 17:56 38.30123 22.46760 29716 ft 407 kts 308°
2026-05-05 17:57 38.31819 22.43888 30004 ft 406 kts 308°
2026-05-05 17:57 38.33511 22.41020 30304 ft 404 kts 308°
2026-05-05 17:57 38.35195 22.38165 30564 ft 402 kts 308°
2026-05-05 17:57 38.36873 22.35318 30801 ft 401 kts 308°
2026-05-05 17:58 38.38544 22.32487 31023 ft 400 kts 308°
2026-05-05 17:58 38.40214 22.29653 31231 ft 399 kts 308°
2026-05-05 17:58 38.41876 22.26820 31367 ft 399 kts 308°
2026-05-05 17:58 38.43535 22.23988 31580 ft 398 kts 308°
2026-05-05 17:59 38.45193 22.21162 31850 ft 397 kts 309°
2026-05-05 17:59 38.46846 22.18347 32114 ft 396 kts 309°
2026-05-05 17:59 38.48494 22.15538 32358 ft 395 kts 309°
2026-05-05 17:59 38.50118 22.12768 32613 ft 394 kts 308°
2026-05-05 18:00 38.51760 22.09961 32831 ft 394 kts 308°
2026-05-05 18:00 38.53400 22.07153 33036 ft 394 kts 309°
2026-05-05 18:00 38.55034 22.04347 33248 ft 394 kts 308°
2026-05-05 18:00 38.56666 22.01538 33471 ft 393 kts 309°
2026-05-05 18:01 38.58290 21.98739 33708 ft 392 kts 309°
2026-05-05 18:01 38.59910 21.95945 33930 ft 390 kts 309°
2026-05-05 18:01 38.61007 21.94065 34063 ft 391 kts 309°
2026-05-05 18:02 38.64227 21.88545 34125 ft 390 kts 309°
2026-05-05 18:02 38.67480 21.82945 34121 ft 389 kts 309°
2026-05-05 18:03 38.70709 21.77378 34124 ft 390 kts 308°
2026-05-05 18:03 38.73931 21.71808 34138 ft 392 kts 308°
2026-05-05 18:04 38.77166 21.66187 34121 ft 392 kts 308°
2026-05-05 18:04 38.80399 21.60572 34118 ft 392 kts 308°
2026-05-05 18:05 38.83635 21.54958 34116 ft 392 kts 308°
2026-05-05 18:05 38.86868 21.49337 34114 ft 392 kts 308°
2026-05-05 18:06 38.90099 21.43701 34138 ft 391 kts 308°
2026-05-05 18:06 38.93316 21.38075 34155 ft 390 kts 308°
2026-05-05 18:07 38.96524 21.32453 34140 ft 389 kts 308°
2026-05-05 18:07 38.99729 21.26842 34138 ft 389 kts 308°
2026-05-05 18:08 39.02923 21.21225 34138 ft 389 kts 308°
2026-05-05 18:08 39.06107 21.15606 34132 ft 389 kts 308°
2026-05-05 18:09 39.09300 21.09983 34110 ft 390 kts 308°
2026-05-05 18:09 39.12504 21.04339 34107 ft 391 kts 308°
2026-05-05 18:10 39.15708 20.98662 34106 ft 392 kts 308°
2026-05-05 18:10 39.18914 20.92972 34110 ft 392 kts 308°
2026-05-05 18:11 39.22121 20.87280 34123 ft 392 kts 307°
2026-05-05 18:11 39.25324 20.81587 34129 ft 392 kts 307°
2026-05-05 18:12 39.28510 20.75915 34121 ft 392 kts 307°
2026-05-05 18:12 39.31713 20.70200 34118 ft 393 kts 307°
2026-05-05 18:13 39.34917 20.64470 34118 ft 394 kts 307°
2026-05-05 18:13 39.38120 20.58725 34123 ft 394 kts 307°
2026-05-05 18:14 39.41328 20.52972 34122 ft 394 kts 307°
2026-05-05 18:14 39.44532 20.47215 34119 ft 394 kts 307°
2026-05-05 18:15 39.47732 20.41440 34114 ft 395 kts 307°
2026-05-05 18:15 39.50942 20.35661 34120 ft 396 kts 307°
2026-05-05 18:16 39.54151 20.29875 34124 ft 396 kts 306°
2026-05-05 18:16 39.57354 20.24076 34125 ft 395 kts 306°
2026-05-05 18:17 39.60551 20.18274 34126 ft 395 kts 306°
2026-05-05 18:17 39.63742 20.12467 34102 ft 395 kts 306°
2026-05-05 18:18 39.66930 20.06656 34094 ft 396 kts 306°
2026-05-05 18:18 39.70122 20.00831 34095 ft 396 kts 306°
2026-05-05 18:19 39.73314 19.94994 34103 ft 396 kts 306°
2026-05-05 18:19 39.76507 19.89148 34100 ft 397 kts 306°
2026-05-05 18:20 39.79703 19.83294 34112 ft 397 kts 306°
2026-05-05 18:20 39.82877 19.77478 34102 ft 397 kts 306°
2026-05-05 18:21 39.86068 19.71607 34119 ft 398 kts 305°
2026-05-05 18:21 39.89256 19.65714 34114 ft 398 kts 305°
2026-05-05 18:22 39.92435 19.59819 34113 ft 398 kts 305°
2026-05-05 18:22 39.95619 19.53920 34126 ft 398 kts 305°
2026-05-05 18:23 39.98804 19.48027 34120 ft 398 kts 305°
2026-05-05 18:23 40.01987 19.42126 34118 ft 397 kts 305°
2026-05-05 18:24 40.05155 19.36219 34114 ft 397 kts 305°
2026-05-05 18:24 40.08326 19.30309 34111 ft 397 kts 305°
2026-05-05 18:25 40.11495 19.24400 34118 ft 397 kts 305°
2026-05-05 18:25 40.14647 19.18479 34114 ft 397 kts 305°
2026-05-05 18:26 40.17797 19.12557 34132 ft 396 kts 304°
2026-05-05 18:26 40.20941 19.06648 34120 ft 395 kts 304°
2026-05-05 18:27 40.24161 19.00822 34112 ft 395 kts 310°
2026-05-05 18:27 40.28339 18.96120 34111 ft 397 kts 320°
2026-05-05 18:28 40.34909 18.89494 34110 ft 397 kts 320°
2026-05-05 18:28 40.39287 18.85061 34105 ft 397 kts 320°
2026-05-05 18:29 40.43629 18.80659 34111 ft 397 kts 319°
2026-05-05 18:29 40.48004 18.76217 34108 ft 397 kts 319°
2026-05-05 18:30 40.52375 18.71768 34097 ft 398 kts 319°
2026-05-05 18:30 40.56746 18.67320 34091 ft 398 kts 319°
2026-05-05 18:31 40.61120 18.62858 34094 ft 398 kts 319°
2026-05-05 18:31 40.65494 18.58385 34089 ft 398 kts 319°
2026-05-05 18:32 40.69867 18.53911 34093 ft 398 kts 319°
2026-05-05 18:32 40.74248 18.49427 34079 ft 399 kts 319°
2026-05-05 18:33 40.78635 18.44923 34076 ft 400 kts 319°
2026-05-05 18:33 40.83025 18.40410 34069 ft 400 kts 319°
2026-05-05 18:34 40.87418 18.35880 34071 ft 401 kts 319°
2026-05-05 18:34 40.91782 18.31374 34073 ft 401 kts 319°
2026-05-05 18:35 40.96181 18.26832 34080 ft 401 kts 319°
2026-05-05 18:35 41.00576 18.22279 34079 ft 401 kts 319°
2026-05-05 18:36 41.04965 18.17718 34082 ft 401 kts 319°
2026-05-05 18:36 41.09358 18.13153 34079 ft 401 kts 319°
2026-05-05 18:37 41.13757 18.08581 34074 ft 401 kts 319°
2026-05-05 18:37 41.18145 18.04007 34088 ft 401 kts 319°
2026-05-05 18:38 41.22531 17.99419 34071 ft 402 kts 319°
2026-05-05 18:38 41.26923 17.94813 34066 ft 402 kts 319°
2026-05-05 18:39 41.31314 17.90209 34059 ft 402 kts 319°
2026-05-05 18:39 41.35719 17.85593 34057 ft 402 kts 319°
2026-05-05 18:40 41.40116 17.80977 34060 ft 402 kts 319°
2026-05-05 18:40 41.44504 17.76347 34060 ft 402 kts 319°
2026-05-05 18:41 41.48890 17.71716 34053 ft 402 kts 318°
2026-05-05 18:41 41.53263 17.67081 34057 ft 401 kts 318°
2026-05-05 18:42 41.57636 17.62445 34064 ft 401 kts 318°
2026-05-05 18:42 41.62004 17.57811 34059 ft 401 kts 318°
2026-05-05 18:43 41.66364 17.53171 34063 ft 400 kts 318°
2026-05-05 18:43 41.70727 17.48525 34056 ft 401 kts 318°
2026-05-05 18:44 41.75085 17.43871 34039 ft 401 kts 318°
2026-05-05 18:44 41.79452 17.39214 34036 ft 401 kts 318°
2026-05-05 18:45 41.83073 17.35337 34037 ft 401 kts 318°
2026-05-05 18:45 41.87427 17.30658 34038 ft 401 kts 318°
2026-05-05 18:46 41.91774 17.25970 34052 ft 400 kts 317°
2026-05-05 18:46 41.95558 17.20560 34048 ft 397 kts 308°
2026-05-05 18:47 41.99144 17.14915 34036 ft 397 kts 309°
2026-05-05 18:47 42.02739 17.09260 34033 ft 398 kts 309°
2026-05-05 18:48 42.06328 17.03606 34023 ft 397 kts 308°
2026-05-05 18:48 42.09889 16.97976 34031 ft 397 kts 308°
2026-05-05 18:49 42.13491 16.92268 34028 ft 397 kts 308°
2026-05-05 18:49 42.17037 16.86632 34034 ft 397 kts 308°
2026-05-05 18:50 42.20614 16.80953 34049 ft 398 kts 308°
2026-05-05 18:50 42.24191 16.75258 34047 ft 398 kts 308°
2026-05-05 18:51 42.27761 16.69550 34041 ft 398 kts 308°
2026-05-05 18:51 42.31326 16.63842 34040 ft 397 kts 308°
2026-05-05 18:52 42.34890 16.58139 34038 ft 397 kts 308°
2026-05-05 18:52 42.38447 16.52425 34043 ft 397 kts 308°
2026-05-05 18:53 42.42004 16.46700 34033 ft 397 kts 308°
2026-05-05 18:53 42.45558 16.40978 34044 ft 397 kts 308°
2026-05-05 18:54 42.49108 16.35246 34039 ft 397 kts 308°
2026-05-05 18:54 42.52657 16.29502 34039 ft 397 kts 307°
2026-05-05 18:55 42.56201 16.23756 34042 ft 397 kts 307°
2026-05-05 18:55 42.59720 16.18050 34035 ft 397 kts 307°
2026-05-05 18:56 42.63260 16.12289 34035 ft 397 kts 307°
2026-05-05 18:56 42.66794 16.06523 34033 ft 397 kts 307°
2026-05-05 18:57 42.70328 16.00748 34050 ft 397 kts 307°
2026-05-05 18:57 42.73859 15.94970 34050 ft 397 kts 306°
2026-05-05 18:58 42.77384 15.89189 34047 ft 397 kts 306°
2026-05-05 18:58 42.80905 15.83393 34048 ft 397 kts 306°
2026-05-05 18:59 42.84424 15.77601 34041 ft 397 kts 306°
2026-05-05 18:59 42.87939 15.71803 34040 ft 397 kts 306°
2026-05-05 19:00 42.91450 15.65995 34043 ft 397 kts 306°
2026-05-05 19:00 42.94941 15.60216 34051 ft 397 kts 306°
2026-05-05 19:01 42.98449 15.54395 34059 ft 397 kts 306°
2026-05-05 19:01 43.01959 15.48575 34056 ft 396 kts 306°
2026-05-05 19:02 43.05453 15.42746 34052 ft 396 kts 306°
2026-05-05 19:02 43.08936 15.36915 34049 ft 396 kts 306°
2026-05-05 19:03 43.12423 15.31077 34047 ft 396 kts 306°
2026-05-05 19:03 43.15910 15.25242 34046 ft 396 kts 305°
2026-05-05 19:04 43.19402 15.19392 34033 ft 397 kts 305°
2026-05-05 19:04 43.22888 15.13524 34040 ft 397 kts 305°
2026-05-05 19:05 43.26366 15.07646 34036 ft 397 kts 305°
2026-05-05 19:05 43.29847 15.01766 34031 ft 397 kts 305°
2026-05-05 19:06 43.33331 14.95877 34032 ft 397 kts 305°
2026-05-05 19:06 43.36815 14.89980 34034 ft 397 kts 304°
2026-05-05 19:07 43.40290 14.84061 34025 ft 398 kts 304°
2026-05-05 19:07 43.43768 14.78129 34022 ft 398 kts 304°
2026-05-05 19:08 43.47249 14.72198 34038 ft 398 kts 304°
2026-05-05 19:08 43.50724 14.66256 34037 ft 398 kts 304°
2026-05-05 19:09 43.54189 14.60310 34032 ft 398 kts 304°
2026-05-05 19:09 43.57652 14.54371 34030 ft 398 kts 304°
2026-05-05 19:10 43.61110 14.48413 34031 ft 397 kts 304°
2026-05-05 19:10 43.64562 14.42457 34028 ft 397 kts 304°
2026-05-05 19:11 43.67991 14.36529 34023 ft 397 kts 304°
2026-05-05 19:11 43.71463 14.30534 34030 ft 397 kts 304°
2026-05-05 19:12 43.74879 14.24596 34025 ft 397 kts 304°
2026-05-05 19:12 43.78267 14.18577 34025 ft 395 kts 299°
2026-05-05 19:13 43.80602 14.11812 34008 ft 389 kts 288°
2026-05-05 19:13 43.82516 14.04819 34004 ft 389 kts 288°
2026-05-05 19:14 43.84440 13.97785 34004 ft 390 kts 288°
2026-05-05 19:14 43.86350 13.90754 33997 ft 390 kts 288°
2026-05-05 19:15 43.88260 13.83712 34002 ft 390 kts 288°
2026-05-05 19:15 43.90174 13.76669 34000 ft 390 kts 287°
2026-05-05 19:16 43.92062 13.69663 34000 ft 391 kts 287°
2026-05-05 19:16 43.93961 13.62598 33995 ft 391 kts 287°
2026-05-05 19:17 43.95858 13.55530 33998 ft 391 kts 287°
2026-05-05 19:17 43.97752 13.48450 34015 ft 391 kts 287°
2026-05-05 19:18 43.99639 13.41356 34008 ft 392 kts 287°
2026-05-05 19:18 44.01525 13.34252 34004 ft 392 kts 287°
2026-05-05 19:19 44.03419 13.27137 34005 ft 392 kts 287°
2026-05-05 19:19 44.05297 13.20021 33998 ft 392 kts 287°
2026-05-05 19:20 44.07166 13.12896 34017 ft 392 kts 286°
2026-05-05 19:20 44.09039 13.05776 34009 ft 392 kts 286°
2026-05-05 19:21 44.10905 12.98655 34008 ft 392 kts 286°
2026-05-05 19:21 44.12771 12.91532 34004 ft 392 kts 286°
2026-05-05 19:22 44.14620 12.84447 33996 ft 391 kts 285°
2026-05-05 19:22 44.16469 12.77320 33994 ft 391 kts 285°
2026-05-05 19:23 44.18332 12.70135 33993 ft 392 kts 285°
2026-05-05 19:23 44.20164 12.63034 33984 ft 392 kts 285°
2026-05-05 19:24 44.22000 12.55873 33962 ft 392 kts 285°
2026-05-05 19:24 44.23839 12.48713 33961 ft 392 kts 285°
2026-05-05 19:25 44.25681 12.41535 33958 ft 393 kts 285°
2026-05-05 19:25 44.27513 12.34351 33976 ft 393 kts 284°
2026-05-05 19:26 44.29338 12.27165 33971 ft 393 kts 284°
2026-05-05 19:26 44.31161 12.19966 33974 ft 393 kts 284°
2026-05-05 19:27 44.32980 12.12758 33983 ft 393 kts 284°
2026-05-05 19:27 44.34794 12.05550 33984 ft 393 kts 284°
2026-05-05 19:28 44.36603 11.98336 34027 ft 393 kts 283°
2026-05-05 19:28 44.38409 11.91119 34021 ft 393 kts 283°
2026-05-05 19:29 44.40208 11.83908 34015 ft 393 kts 283°
2026-05-05 19:29 44.42006 11.76691 34013 ft 393 kts 283°
2026-05-05 19:30 44.43798 11.69475 34016 ft 392 kts 283°
2026-05-05 19:30 44.45568 11.62304 34025 ft 392 kts 282°
2026-05-05 19:31 44.47342 11.55087 34017 ft 392 kts 282°
2026-05-05 19:31 44.49119 11.47873 33999 ft 392 kts 282°
2026-05-05 19:32 44.50881 11.40652 33985 ft 392 kts 282°
2026-05-05 19:32 44.52637 11.33432 33999 ft 391 kts 282°
2026-05-05 19:33 44.54334 11.27510 33986 ft 401 kts 291°
2026-05-05 19:33 44.57124 11.20706 34040 ft 402 kts 291°
2026-05-05 19:34 44.59905 11.13887 34038 ft 403 kts 291°
2026-05-05 19:35 44.64066 11.03632 34045 ft 403 kts 291°
2026-05-05 19:35 44.66835 10.96790 34050 ft 403 kts 291°
2026-05-05 19:36 44.69593 10.89933 34048 ft 402 kts 291°
2026-05-05 19:36 44.72353 10.83083 34038 ft 402 kts 291°
2026-05-05 19:37 44.75111 10.76234 34032 ft 402 kts 291°
2026-05-05 19:37 44.77858 10.69376 34032 ft 402 kts 291°
2026-05-05 19:38 44.80605 10.62512 34032 ft 403 kts 291°
2026-05-05 19:38 44.83355 10.55627 34017 ft 403 kts 291°
2026-05-05 19:39 44.86100 10.48724 34014 ft 404 kts 290°
2026-05-05 19:39 44.88825 10.41859 34012 ft 404 kts 290°
2026-05-05 19:40 44.91564 10.34940 34019 ft 404 kts 290°
2026-05-05 19:40 44.94303 10.28013 33996 ft 404 kts 290°
2026-05-05 19:41 44.97037 10.21063 33987 ft 405 kts 290°
2026-05-05 19:41 44.99770 10.14107 33979 ft 405 kts 290°
2026-05-05 19:42 45.02499 10.07147 33979 ft 405 kts 290°
2026-05-05 19:42 45.05229 10.00178 33971 ft 405 kts 290°
2026-05-05 19:43 45.07950 9.93202 33966 ft 405 kts 289°
2026-05-05 19:43 45.10663 9.86218 33953 ft 405 kts 289°
2026-05-05 19:44 45.13386 9.79217 33956 ft 405 kts 289°
2026-05-05 19:44 45.16093 9.72218 33953 ft 405 kts 289°
2026-05-05 19:45 45.18796 9.65202 34002 ft 405 kts 289°
2026-05-05 19:45 45.21497 9.58177 33992 ft 406 kts 289°
2026-05-05 19:46 45.24182 9.51199 33994 ft 406 kts 289°
2026-05-05 19:46 45.26886 9.44167 34004 ft 406 kts 289°
2026-05-05 19:47 45.29581 9.37124 33968 ft 406 kts 288°
2026-05-05 19:47 45.32266 9.30067 33990 ft 406 kts 288°
2026-05-05 19:48 45.34947 9.23007 33975 ft 406 kts 288°
2026-05-05 19:48 45.37634 9.15927 33968 ft 407 kts 288°
2026-05-05 19:49 45.40323 9.08839 33963 ft 407 kts 288°
2026-05-05 19:49 45.42999 9.01738 33971 ft 407 kts 288°
2026-05-05 19:50 45.45674 8.94612 34020 ft 408 kts 288°
2026-05-05 19:50 45.48359 8.87473 33997 ft 409 kts 288°
2026-05-05 19:51 45.51047 8.80307 33988 ft 410 kts 288°
2026-05-05 19:51 45.53728 8.73126 33986 ft 411 kts 288°
2026-05-05 19:52 45.56387 8.65973 33989 ft 411 kts 288°
2026-05-05 19:52 45.59058 8.58763 34004 ft 411 kts 288°
2026-05-05 19:53 45.61734 8.51537 33988 ft 412 kts 288°
2026-05-05 19:53 45.64421 8.44294 33982 ft 413 kts 288°
2026-05-05 19:54 45.67094 8.37059 33995 ft 413 kts 288°
2026-05-05 19:54 45.69760 8.29779 33986 ft 413 kts 288°
2026-05-05 19:55 45.72427 8.22493 34006 ft 414 kts 289°
2026-05-05 19:55 45.75105 8.15175 33981 ft 415 kts 289°
2026-05-05 19:56 45.77788 8.07843 33977 ft 416 kts 289°
2026-05-05 19:56 45.80469 8.00480 33973 ft 416 kts 289°
2026-05-05 19:57 45.83139 7.93112 33955 ft 418 kts 289°
2026-05-05 19:57 45.85797 7.85756 33989 ft 419 kts 289°
2026-05-05 19:58 45.88475 7.78325 33973 ft 419 kts 289°
2026-05-05 19:58 45.91147 7.70895 33982 ft 419 kts 289°
2026-05-05 19:59 45.93822 7.63451 33965 ft 419 kts 289°
2026-05-05 19:59 45.96504 7.55992 33951 ft 422 kts 292°
2026-05-05 20:00 46.00023 7.49082 33941 ft 432 kts 300°
2026-05-05 20:00 46.03777 7.42328 33935 ft 432 kts 300°
2026-05-05 20:01 46.07517 7.35567 33930 ft 431 kts 300°
2026-05-05 20:01 46.11252 7.28794 33926 ft 432 kts 300°
2026-05-05 20:02 46.14955 7.22054 33936 ft 432 kts 301°
2026-05-05 20:02 46.18689 7.15245 33945 ft 433 kts 302°
2026-05-05 20:03 46.22431 7.08411 33926 ft 434 kts 302°
2026-05-05 20:03 46.26177 7.01538 33918 ft 436 kts 302°
2026-05-05 20:04 46.29931 6.94642 33919 ft 437 kts 302°
2026-05-05 20:04 46.33695 6.87731 33905 ft 437 kts 302°
2026-05-05 20:05 46.37442 6.80809 33931 ft 437 kts 302°
2026-05-05 20:05 46.41187 6.73870 33893 ft 438 kts 302°
2026-05-05 20:06 46.44839 6.66808 33891 ft 434 kts 295°
2026-05-05 20:06 46.47849 6.59240 33882 ft 433 kts 294°
2026-05-05 20:06 46.49351 6.55440 33144 ft 434 kts 297°
2026-05-05 20:07 46.50853 6.51635 33913 ft 436 kts 294°
2026-05-05 20:07 46.53863 6.43994 33883 ft 438 kts 294°
2026-05-05 20:08 46.56879 6.36318 33870 ft 441 kts 294°